Regional Weather Roundup
Issued by NWS

Home | Current Version | Previous Version | Graphics & Text | Print | Product List | Glossary Off
Versions: 1 2 3 4 5 6 7 8 9 10 11 12 13 14 15 16 17 18 19 20 21 22 23 24 25 26 27 28 29 30 31 32 33 34 35 36 37 38 39 40 41 42 43 44 45 46 47 48 49 50

000
ASUS43 KLSX 042207
RWRMO

WEATHER SUMMARY FOR MISSOURI
NATIONAL WEATHER SERVICE SPRINGFIELD MO
400 PM CST SUN DEC 04 2016

NOTE: "FAIR" INDICATES FEW OR NO CLOUDS BELOW 12,000 FEET WITH NO
       SIGNIFICANT WEATHER AND/OR OBSTRUCTIONS TO VISIBILITY.
       CURRENT SKY AND/OR WEATHER CONDITIONS ARE NOT AVAILABLE FOR
       CHILLICOTHE AND FARMINGTON.

MOZ001>031-035>038-043-044-053-054-042300-
...NORTHERN AND WESTERN MISSOURI...

CITY           SKY/WX    TMP DP  RH WIND       PRES   REMARKS
KANSAS CTY INT MOCLDY    42  35  76 SW8       29.97S
KANSAS C DTWN  PTCLDY    45  37  73 W9        29.98S
LEE`S SUMMIT   CLEAR     45  36  70 SW10      29.98R
ST JOSEPH      MOCLDY    39  35  86 SW9       29.97S
CHILLICOTHE      N/A     42  36  79 W5        29.96S
KIRKSVILLE     CLOUDY    35  33  92 W12       29.94S WCI  27

$$
MOZ066>068-077>081-088>096-101>105-042300-
...SOUTHWEST MISSOURI...

CITY           SKY/WX    TMP DP  RH WIND       PRES   REMARKS
SPRINGFIELD    CLOUDY    45  38  76 NW8       30.00S
JOPLIN         CLOUDY    46  37  71 W10       30.04R
BRANSON        CLOUDY    45  39  81 NW6       30.00F

$$
MOZ032>034-039>042-045>050-055>058-069>072-042300-
...CENTRAL MISSOURI...

CITY           SKY/WX    TMP DP  RH WIND       PRES   REMARKS
COLUMBIA       CLOUDY    40  37  89 W7        29.97S
JEFFERSON CITY CLOUDY    42  37  82 NW8       29.99R
ROLLA          CLOUDY    41  38  89 W7        29.96R
SEDALIA        MOCLDY    45  37  73 W9        29.99S
WHITEMAN AFB   PTCLDY    44  40  86 W7        29.97S
WARRENSBURG    CLEAR     45  36  70 SW7       29.98S
OSAGE BEACH    CLOUDY    43  38  82 W7        30.00R

$$
MOZ051-052-059>065-042300-
...EAST CENTRAL MISSOURI...

CITY           SKY/WX    TMP DP  RH WIND       PRES   REMARKS
ST LOUIS INTL  CLOUDY    42  35  76 W12       29.96R
SPIRIT OF STL  CLOUDY    41  38  89 W8        29.97R
ST CHARLES     CLOUDY    40  37  89 W12       29.95R

$$
MOZ072>076-082>087-097>100-106>115-042300-
...SOUTH CENTRAL AND SOUTHEAST MISSOURI...

CITY           SKY/WX    TMP DP  RH WIND       PRES   REMARKS
CAPE GIRARDEAU CLOUDY    43  40  89 W8        29.97S
FARMINGTON     CLOUDY    41  37  86 NW10      29.96R
POPLAR BLUFF   CLOUDY    44  41  89 W5        29.97F
WEST PLAINS    CLOUDY    44  41  89 NW5       29.98R

$$



USA.gov is the U.S. government's official web portal to all federal, state and local government web resources and services.